Time,TemperatureF,DewpointF,PressureIn,WindDirection,WindDirectionDegrees,WindSpeedMPH,WindSpeedGustMPH,Humidity,HourlyPrecipIn,Conditions,Clouds,dailyrainin,SoftwareType,DateUTC
2013-07-05 00:01:00,71.0,62.0,30.01,SW,224,0.0,0.0,72,0.00,,,0.00,,2013-07-05 05:01:00,
2013-07-05 00:12:00,71.0,62.0,30.01,SW,224,0.0,0.0,72,0.00,,,0.00,,2013-07-05 05:12:00,
2013-07-05 00:22:00,71.0,62.0,30.00,South,183,0.0,0.0,72,0.00,,,0.00,,2013-07-05 05:22:00,
2013-07-05 00:33:00,71.0,62.0,30.00,SSE,154,0.0,0.0,72,0.00,,,0.00,,2013-07-05 05:33:00,
2013-07-05 00:43:00,71.0,62.0,30.00,SSE,149,0.0,0.0,72,0.00,,,0.00,,2013-07-05 05:43:00,
2013-07-05 00:52:00,71.0,62.0,30.00,SSE,149,0.0,0.0,72,0.00,,,0.00,,2013-07-05 05:52:00,
2013-07-05 01:02:00,71.0,62.0,30.00,SSE,154,0.0,0.0,72,0.00,,,0.00,,2013-07-05 06:02:00,
2013-07-05 01:13:00,71.0,62.0,30.00,NW,309,0.0,0.0,74,0.00,,,0.00,,2013-07-05 06:13:00,
2013-07-05 01:23:00,71.0,62.0,30.00,NW,309,0.0,0.0,74,0.00,,,0.00,,2013-07-05 06:23:00,
2013-07-05 01:34:00,71.0,63.0,30.00,NW,309,0.0,0.0,75,0.00,,,0.00,,2013-07-05 06:34:00,
2013-07-05 01:43:00,70.0,62.0,30.00,SSE,153,0.0,0.0,76,0.00,,,0.00,,2013-07-05 06:43:00,
2013-07-05 01:53:00,70.0,62.0,30.00,SSE,153,0.0,0.0,76,0.00,,,0.00,,2013-07-05 06:53:00,
2013-07-05 02:02:00,69.0,62.0,30.00,SSE,153,0.0,0.0,79,0.00,,,0.00,,2013-07-05 07:02:00,
2013-07-05 02:12:00,68.0,62.0,30.00,SSE,153,0.0,0.0,80,0.00,,,0.00,,2013-07-05 07:12:00,
2013-07-05 02:23:00,68.0,62.0,30.00,SSE,153,0.0,0.0,80,0.00,,,0.00,,2013-07-05 07:23:00,
2013-07-05 02:34:00,68.0,62.0,30.00,SSE,154,0.0,0.0,82,0.00,,,0.00,,2013-07-05 07:34:00,
2013-07-05 02:53:00,67.0,62.0,30.00,SSE,153,0.0,0.0,83,0.00,,,0.00,,2013-07-05 07:53:00,
2013-07-05 03:02:00,66.0,61.0,29.99,SSE,153,0.0,0.0,84,0.00,,,0.00,,2013-07-05 08:02:00,
2013-07-05 03:12:00,66.0,61.0,29.99,SSE,154,0.0,0.0,84,0.00,,,0.00,,2013-07-05 08:12:00,
2013-07-05 03:23:00,66.0,61.0,29.99,SSE,154,0.0,0.0,84,0.00,,,0.00,,2013-07-05 08:23:00,
2013-07-05 03:33:00,66.0,61.0,29.99,SSE,154,0.0,0.0,85,0.00,,,0.00,,2013-07-05 08:33:00,
2013-07-05 03:43:00,65.0,61.0,29.99,SSE,153,0.0,0.0,86,0.00,,,0.00,,2013-07-05 08:43:00,
2013-07-05 04:06:00,65.0,61.0,29.99,SSE,153,0.0,0.0,87,0.00,,,0.00,,2013-07-05 09:06:00,
2013-07-05 04:24:00,65.0,61.0,29.99,SSE,153,0.0,0.0,88,0.00,,,0.00,,2013-07-05 09:24:00,
2013-07-05 04:37:00,65.0,61.0,29.98,SSE,154,0.0,0.0,87,0.00,,,0.00,,2013-07-05 09:37:00,
2013-07-05 04:45:00,66.0,62.0,29.98,South,173,0.0,1.0,86,0.00,,,0.00,,2013-07-05 09:45:00,
2013-07-05 04:53:00,66.0,62.0,29.98,South,173,0.0,1.0,86,0.00,,,0.00,,2013-07-05 09:53:00,
2013-07-05 05:06:00,66.0,62.0,29.99,South,187,0.0,0.0,86,0.00,,,0.00,,2013-07-05 10:06:00,
2013-07-05 05:16:00,65.0,61.0,30.00,South,188,0.0,0.0,87,0.00,,,0.00,,2013-07-05 10:16:00,
2013-07-05 05:24:00,65.0,61.0,30.00,South,188,0.0,0.0,87,0.00,,,0.00,,2013-07-05 10:24:00,
2013-07-05 05:35:00,64.0,60.0,30.00,South,187,0.0,0.0,88,0.00,,,0.00,,2013-07-05 10:35:00,
2013-07-05 05:46:00,64.0,61.0,30.01,South,187,0.0,0.0,89,0.00,,,0.00,,2013-07-05 10:46:00,
2013-07-05 05:55:00,64.0,61.0,30.01,South,187,0.0,0.0,89,0.00,,,0.00,,2013-07-05 10:55:00,
2013-07-05 06:15:00,63.0,60.0,30.01,South,187,0.0,0.0,91,0.00,,,0.00,,2013-07-05 11:15:00,
2013-07-05 06:23:00,63.0,60.0,30.01,South,187,0.0,0.0,91,0.00,,,0.00,,2013-07-05 11:23:00,
2013-07-05 06:37:00,63.0,60.0,30.01,South,187,0.0,0.0,91,0.00,,,0.00,,2013-07-05 11:37:00,
2013-07-05 06:45:00,63.0,61.0,30.02,South,187,0.0,0.0,92,0.00,,,0.00,,2013-07-05 11:45:00,
2013-07-05 06:55:00,63.0,61.0,30.02,South,187,0.0,0.0,92,0.00,,,0.00,,2013-07-05 11:55:00,
2013-07-05 07:06:00,63.0,61.0,30.02,South,188,0.0,0.0,92,0.00,,,0.00,,2013-07-05 12:06:00,
2013-07-05 07:14:00,64.0,61.0,30.02,South,187,0.0,1.0,91,0.00,,,0.00,,2013-07-05 12:14:00,
2013-07-05 07:24:00,64.0,61.0,30.02,South,187,0.0,1.0,91,0.00,,,0.00,,2013-07-05 12:24:00,
2013-07-05 07:36:00,65.0,62.0,30.02,SSE,156,0.0,1.0,89,0.00,,,0.00,,2013-07-05 12:36:00,
2013-07-05 07:55:00,66.0,62.0,30.02,SE,141,0.0,2.0,86,0.00,,,0.00,,2013-07-05 12:55:00,
2013-07-05 08:05:00,67.0,62.0,30.03,SSW,212,0.0,1.0,84,0.00,,,0.00,,2013-07-05 13:05:00,
2013-07-05 08:23:00,68.0,62.0,30.03,ESE,113,0.0,2.0,81,0.00,,,0.00,,2013-07-05 13:23:00,
2013-07-05 08:37:00,69.0,62.0,30.03,South,184,0.0,4.0,79,0.00,,,0.00,,2013-07-05 13:37:00,
2013-07-05 08:46:00,71.0,63.0,30.03,East,98,1.0,3.0,76,0.00,,,0.00,,2013-07-05 13:46:00,
2013-07-05 08:55:00,71.0,63.0,30.03,East,98,1.0,3.0,76,0.00,,,0.00,,2013-07-05 13:55:00,
2013-07-05 09:07:00,72.0,63.0,30.04,SE,142,1.0,5.0,74,0.00,,,0.00,,2013-07-05 14:07:00,
2013-07-05 09:36:00,74.0,64.0,30.03,ESE,103,1.0,6.0,70,0.00,,,0.00,,2013-07-05 14:36:00,
2013-07-05 09:45:00,76.0,64.0,30.03,SSW,207,2.0,7.0,67,0.00,,,0.00,,2013-07-05 14:45:00,
2013-07-05 09:56:00,76.0,64.0,30.03,SSW,207,2.0,7.0,67,0.00,,,0.00,,2013-07-05 14:56:00,
2013-07-05 10:05:00,77.0,65.0,30.03,SW,233,1.0,5.0,66,0.00,,,0.00,,2013-07-05 15:05:00,
2013-07-05 10:23:00,79.0,66.0,30.04,SSE,150,0.0,3.0,64,0.00,,,0.00,,2013-07-05 15:23:00,
2013-07-05 10:33:00,80.0,65.0,30.03,WSW,243,1.0,5.0,60,0.00,,,0.00,,2013-07-05 15:33:00,
2013-07-05 10:43:00,81.0,65.0,30.03,SSE,149,1.0,6.0,59,0.00,,,0.00,,2013-07-05 15:43:00,
2013-07-05 11:02:00,82.0,66.0,30.03,West,278,1.0,4.0,59,0.00,,,0.00,,2013-07-05 16:02:00,
2013-07-05 11:11:00,83.0,67.0,30.02,WSW,248,1.0,4.0,59,0.00,,,0.00,,2013-07-05 16:11:00,
2013-07-05 11:22:00,83.0,67.0,30.02,WSW,248,1.0,4.0,59,0.00,,,0.00,,2013-07-05 16:22:00,
2013-07-05 11:33:00,84.0,67.0,30.02,ESE,112,0.0,6.0,56,0.00,,,0.00,,2013-07-05 16:33:00,
2013-07-05 11:44:00,85.0,67.0,30.02,West,273,0.0,5.0,55,0.00,,,0.00,,2013-07-05 16:44:00,
2013-07-05 11:53:00,85.0,67.0,30.02,West,273,0.0,5.0,55,0.00,,,0.00,,2013-07-05 16:53:00,
2013-07-05 12:02:00,86.0,67.0,30.02,West,276,0.0,3.0,53,0.00,,,0.00,,2013-07-05 17:02:00,
2013-07-05 12:12:00,87.0,67.0,30.01,SE,126,1.0,4.0,51,0.00,,,0.00,,2013-07-05 17:12:00,
2013-07-05 12:22:00,87.0,67.0,30.01,SE,126,1.0,4.0,51,0.00,,,0.00,,2013-07-05 17:22:00,
2013-07-05 12:33:00,87.0,67.0,30.01,West,278,1.0,5.0,51,0.00,,,0.00,,2013-07-05 17:33:00,
2013-07-05 12:43:00,87.0,67.0,30.01,West,278,1.0,5.0,51,0.00,,,0.00,,2013-07-05 17:43:00,
2013-07-05 12:53:00,87.0,66.0,30.01,SSE,165,2.0,6.0,50,0.00,,,0.00,,2013-07-05 17:53:00,
2013-07-05 13:01:00,88.0,68.0,30.01,West,270,1.0,5.0,51,0.00,,,0.00,,2013-07-05 18:01:00,
2013-07-05 13:11:00,88.0,68.0,30.01,West,270,1.0,5.0,51,0.00,,,0.00,,2013-07-05 18:11:00,
2013-07-05 13:22:00,89.0,67.0,30.00,SSE,162,1.0,6.0,49,0.00,,,0.00,,2013-07-05 18:22:00,
2013-07-05 13:33:00,90.0,67.0,29.99,SSW,208,1.0,5.0,47,0.00,,,0.00,,2013-07-05 18:33:00,
2013-07-05 13:43:00,90.0,67.0,29.99,SSW,208,1.0,5.0,47,0.00,,,0.00,,2013-07-05 18:43:00,
2013-07-05 13:53:00,90.0,65.0,29.99,West,267,1.0,7.0,44,0.00,,,0.00,,2013-07-05 18:53:00,
2013-07-05 14:01:00,91.0,64.0,29.99,West,272,2.0,6.0,41,0.00,,,0.00,,2013-07-05 19:01:00,
2013-07-05 14:12:00,91.0,64.0,29.99,West,272,2.0,6.0,41,0.00,,,0.00,,2013-07-05 19:12:00,
2013-07-05 14:22:00,89.0,65.0,29.99,SSW,207,1.0,5.0,46,0.00,,,0.00,,2013-07-05 19:22:00,
2013-07-05 14:33:00,90.0,64.0,29.98,SW,221,0.0,4.0,42,0.00,,,0.00,,2013-07-05 19:33:00,
2013-07-05 14:42:00,90.0,64.0,29.98,SW,221,0.0,4.0,42,0.00,,,0.00,,2013-07-05 19:42:00,
2013-07-05 14:53:00,91.0,63.0,29.98,ESE,105,0.0,4.0,39,0.00,,,0.00,,2013-07-05 19:53:00,
2013-07-05 15:01:00,90.0,62.0,29.98,West,271,1.0,3.0,40,0.00,,,0.00,,2013-07-05 20:01:00,
2013-07-05 15:11:00,90.0,62.0,29.98,West,271,1.0,3.0,40,0.00,,,0.00,,2013-07-05 20:11:00,
2013-07-05 15:22:00,89.0,64.0,29.97,West,273,0.0,2.0,44,0.00,,,0.00,,2013-07-05 20:22:00,
2013-07-05 15:33:00,88.0,63.0,29.97,WSW,239,0.0,3.0,44,0.00,,,0.00,,2013-07-05 20:33:00,
2013-07-05 15:43:00,88.0,63.0,29.97,WSW,239,0.0,3.0,44,0.00,,,0.00,,2013-07-05 20:43:00,
2013-07-05 15:53:00,87.0,64.0,29.97,West,259,0.0,1.0,46,0.00,,,0.00,,2013-07-05 20:53:00,
2013-07-05 16:01:00,87.0,63.0,29.96,SSE,165,1.0,4.0,45,0.00,,,0.00,,2013-07-05 21:01:00,
2013-07-05 16:11:00,87.0,63.0,29.96,SSE,165,1.0,4.0,45,0.00,,,0.00,,2013-07-05 21:11:00,
2013-07-05 16:22:00,88.0,63.0,29.96,SW,215,2.0,6.0,44,0.00,,,0.00,,2013-07-05 21:22:00,
2013-07-05 16:34:00,88.0,64.0,29.96,South,188,0.0,5.0,45,0.00,,,0.00,,2013-07-05 21:34:00,
2013-07-05 16:42:00,88.0,64.0,29.96,South,188,0.0,5.0,45,0.00,,,0.00,,2013-07-05 21:42:00,
2013-07-05 16:53:00,88.0,64.0,29.95,West,259,1.0,5.0,45,0.00,,,0.00,,2013-07-05 21:53:00,
2013-07-05 17:01:00,88.0,62.0,29.95,SSW,205,1.0,5.0,42,0.00,,,0.00,,2013-07-05 22:01:00,
2013-07-05 17:11:00,88.0,62.0,29.95,SSW,205,1.0,5.0,42,0.00,,,0.00,,2013-07-05 22:11:00,
2013-07-05 17:21:00,88.0,63.0,29.94,SSW,211,2.0,6.0,44,0.00,,,0.00,,2013-07-05 22:21:00,
2013-07-05 17:33:00,87.0,63.0,29.94,SSE,156,0.0,3.0,45,0.00,,,0.00,,2013-07-05 22:33:00,
2013-07-05 17:43:00,87.0,63.0,29.94,SSE,156,0.0,3.0,45,0.00,,,0.00,,2013-07-05 22:43:00,
2013-07-05 17:53:00,87.0,66.0,29.93,South,184,0.0,3.0,50,0.00,,,0.00,,2013-07-05 22:53:00,
2013-07-05 18:02:00,86.0,66.0,29.93,ESE,122,0.0,5.0,52,0.00,,,0.00,,2013-07-05 23:02:00,
2013-07-05 18:11:00,86.0,66.0,29.93,ESE,122,0.0,5.0,52,0.00,,,0.00,,2013-07-05 23:11:00,
2013-07-05 18:23:00,87.0,66.0,29.93,ENE,67,1.0,4.0,50,0.00,,,0.00,,2013-07-05 23:23:00,
2013-07-05 18:32:00,87.0,65.0,29.92,SSW,198,0.0,5.0,49,0.00,,,0.00,,2013-07-05 23:32:00,
2013-07-05 18:43:00,87.0,65.0,29.92,SSW,198,0.0,5.0,49,0.00,,,0.00,,2013-07-05 23:43:00,
2013-07-05 18:53:00,87.0,65.0,29.93,SSW,211,0.0,3.0,49,0.00,,,0.00,,2013-07-05 23:53:00,
2013-07-05 19:01:00,86.0,65.0,29.92,South,170,1.0,7.0,50,0.00,,,0.00,,2013-07-06 00:01:00,
2013-07-05 19:11:00,86.0,65.0,29.92,South,170,1.0,7.0,50,0.00,,,0.00,,2013-07-06 00:11:00,
2013-07-05 19:22:00,86.0,64.0,29.92,SE,133,1.0,7.0,48,0.00,,,0.00,,2013-07-06 00:22:00,
2013-07-05 19:33:00,86.0,63.0,29.91,SW,224,1.0,4.0,47,0.00,,,0.00,,2013-07-06 00:33:00,
2013-07-05 19:42:00,86.0,63.0,29.91,SW,224,1.0,4.0,47,0.00,,,0.00,,2013-07-06 00:42:00,
2013-07-05 19:53:00,86.0,64.0,29.91,SSE,158,0.0,3.0,48,0.00,,,0.00,,2013-07-06 00:53:00,
2013-07-05 20:02:00,85.0,64.0,29.91,SSE,163,0.0,4.0,49,0.00,,,0.00,,2013-07-06 01:02:00,
2013-07-05 20:12:00,85.0,64.0,29.91,SSE,163,0.0,4.0,49,0.00,,,0.00,,2013-07-06 01:12:00,
2013-07-05 20:22:00,84.0,66.0,29.91,SE,135,0.0,1.0,54,0.00,,,0.00,,2013-07-06 01:22:00,
2013-07-05 20:33:00,82.0,65.0,29.92,SSE,147,0.0,0.0,56,0.00,,,0.00,,2013-07-06 01:33:00,
2013-07-05 20:42:00,82.0,65.0,29.92,SSE,147,0.0,0.0,56,0.00,,,0.00,,2013-07-06 01:42:00,
2013-07-05 20:53:00,82.0,66.0,29.92,SE,146,0.0,0.0,59,0.00,,,0.00,,2013-07-06 01:53:00,
2013-07-05 21:02:00,81.0,66.0,29.92,SE,146,0.0,1.0,60,0.00,,,0.00,,2013-07-06 02:02:00,
2013-07-05 21:12:00,81.0,66.0,29.92,SE,146,0.0,1.0,60,0.00,,,0.00,,2013-07-06 02:12:00,
2013-07-05 21:22:00,81.0,66.0,29.92,ESE,118,0.0,1.0,60,0.00,,,0.00,,2013-07-06 02:22:00,
2013-07-05 21:33:00,81.0,67.0,29.93,ESE,122,0.0,0.0,62,0.00,,,0.00,,2013-07-06 02:33:00,
2013-07-05 21:43:00,81.0,67.0,29.93,ESE,122,0.0,0.0,62,0.00,,,0.00,,2013-07-06 02:43:00,
2013-07-05 21:53:00,80.0,66.0,29.93,ESE,121,0.0,0.0,63,0.00,,,0.00,,2013-07-06 02:53:00,
2013-07-05 22:02:00,79.0,66.0,29.94,SSE,152,0.0,1.0,64,0.00,,,0.00,,2013-07-06 03:02:00,
2013-07-05 22:12:00,79.0,66.0,29.94,SSE,152,0.0,1.0,64,0.00,,,0.00,,2013-07-06 03:12:00,
2013-07-05 22:22:00,79.0,65.0,29.94,ESE,120,0.0,1.0,62,0.00,,,0.00,,2013-07-06 03:22:00,
2013-07-05 22:34:00,79.0,64.0,29.95,SW,217,0.0,2.0,61,0.00,,,0.00,,2013-07-06 03:34:00,
2013-07-05 22:43:00,79.0,64.0,29.95,SW,217,0.0,2.0,61,0.00,,,0.00,,2013-07-06 03:43:00,
2013-07-05 22:53:00,79.0,64.0,29.95,SW,224,0.0,1.0,61,0.00,,,0.00,,2013-07-06 03:53:00,
2013-07-05 23:02:00,79.0,64.0,29.96,SSE,153,0.0,2.0,61,0.00,,,0.00,,2013-07-06 04:02:00,
2013-07-05 23:12:00,79.0,64.0,29.96,SSE,153,0.0,2.0,61,0.00,,,0.00,,2013-07-06 04:12:00,
2013-07-05 23:22:00,78.0,63.0,29.96,SW,219,0.0,2.0,61,0.00,,,0.00,,2013-07-06 04:22:00,
2013-07-05 23:33:00,78.0,63.0,29.96,SW,226,0.0,1.0,61,0.00,,,0.00,,2013-07-06 04:33:00,
2013-07-05 23:43:00,78.0,63.0,29.96,SW,226,0.0,1.0,61,0.00,,,0.00,,2013-07-06 04:43:00,
2013-07-05 23:53:00,78.0,63.0,29.96,SE,135,0.0,2.0,61,0.00,,,0.00,,2013-07-06 04:53:00,